Delaware, OH

7:31 PM EDT on September 19, 2019 (GMT -0400)
Delaware Municipal

Weather History for KDLZ - August, 2019

Change the Weather History Date:

Saturday, August 24, 2019

  Actual Average Record
Temperature  
Mean Temperature 64 °F -  
Max Temperature 75 °F 81 °F 96 °F (1954)
Min Temperature 53 °F 57 °F 43 °F (1971)
Degree Days  
Heating Degree Days 1    
Growing Degree Days 14 (Base 50)    
Moisture  
Dew Point 53 °F    
Average Humidity 68    
Maximum Humidity 100    
Minimum Humidity 41    
Precipitation  
Precipitation 0.00 in - - ()
Sea Level Pressure  
Sea Level Pressure 30.22 in    
Wind  
Wind Speed 6 mph (NE)    
Max Wind Speed 10 mph    
Max Gust Speed 17 mph    
Visibility 10 miles    
Events      
Averages and records for this station are not official NWS values.
T = Trace of Precipitation, MM = Missing Value Source: NWS Daily Summary

Daily Weather History Graph

Daily Weather History Graph

Search for Another Location

Airport or City:

Astronomy

Aug. 24, 2019 Rise Set
Actual Time 6:52 AM EDT 8:16 PM EDT
Civil Twilight 6:23 AM EDT 8:45 PM EDT
Nautical Twilight 5:49 AM EDT 9:19 PM EDT
Astronomical Twilight 5:13 AM EDT 9:55 PM EDT
Moon 12:44 AM EDT (8/24) 3:31 PM EDT (8/24)
Length of Visible Light 14h 21m
Length of Day
13h 24m
Last Quarter, 39% of the Moon is Illuminated
Aug 24
Last Quarter
Aug 30
New
Sep 5
First Quarter
Sep 14
Full
Sep 21
Last Quarter

Hourly Weather History & Observations

Time (EDT) Temp. Dew Point Humidity Pressure Visibility Wind Dir Wind Speed Gust Speed Precip Events Conditions
12:16 AM 59.0 °F 51.8 °F 77% 30.20 in 10.0 mi NNE 3.5 mph - N/A   Clear
12:36 AM 59.0 °F 53.6 °F 82% 30.21 in 10.0 mi NNE 5.8 mph - N/A   Clear
12:56 AM 59.0 °F 51.8 °F 77% 30.21 in 10.0 mi NE 4.6 mph - N/A   Clear
1:16 AM 57.2 °F 51.8 °F 82% 30.21 in 10.0 mi NE 4.6 mph - N/A   Clear
1:35 AM 57.2 °F 51.8 °F 82% 30.21 in 10.0 mi NE 4.6 mph - N/A   Clear
1:55 AM 57.2 °F 51.8 °F 82% 30.21 in 10.0 mi NNE 3.5 mph - N/A   Clear
2:16 AM 55.4 °F 51.8 °F 88% 30.21 in 10.0 mi NNE 4.6 mph - N/A   Clear
2:36 AM 55.4 °F 51.8 °F 88% 30.21 in 10.0 mi North 4.6 mph - N/A   Clear
2:56 AM 55.4 °F 51.8 °F 88% 30.21 in 10.0 mi NNE 5.8 mph - N/A   Clear
3:16 AM 55.4 °F 51.8 °F 88% 30.20 in 10.0 mi North 4.6 mph - N/A   Clear
3:36 AM 55.4 °F 51.8 °F 88% 30.21 in 10.0 mi North 4.6 mph - N/A   Clear
3:56 AM 55.4 °F 51.8 °F 88% 30.21 in 10.0 mi North 4.6 mph - N/A   Clear
4:16 AM 55.4 °F 51.8 °F 88% 30.22 in 10.0 mi North 4.6 mph - N/A   Scattered Clouds
4:35 AM 55.4 °F 53.6 °F 94% 30.22 in 10.0 mi North 4.6 mph - N/A   Mostly Cloudy
4:56 AM 55.4 °F 53.6 °F 94% 30.22 in 10.0 mi North 5.8 mph - N/A   Scattered Clouds
5:16 AM 55.4 °F 53.6 °F 94% 30.23 in 10.0 mi North 4.6 mph - N/A   Clear
5:35 AM 55.4 °F 53.6 °F 94% 30.23 in 10.0 mi North 3.5 mph - N/A   Clear
5:56 AM 53.6 °F 53.6 °F 100% 30.23 in 10.0 mi North 3.5 mph - N/A   Clear
6:15 AM 53.6 °F 53.6 °F 100% 30.24 in 10.0 mi NNW 3.5 mph - N/A   Clear
6:36 AM 53.6 °F 51.8 °F 94% 30.24 in 10.0 mi Calm Calm - N/A   Clear
7:15 AM 53.6 °F 51.8 °F 94% 30.25 in 10.0 mi North 3.5 mph - N/A   Clear
7:36 AM 53.6 °F 53.6 °F 100% 30.25 in 10.0 mi North 4.6 mph - N/A   Clear
7:55 AM 55.4 °F 53.6 °F 94% 30.25 in 10.0 mi North 3.5 mph - N/A   Clear
8:36 AM 59.0 °F 55.4 °F 88% 30.25 in 10.0 mi North 3.5 mph - N/A   Clear
8:55 AM 60.8 °F 55.4 °F 82% 30.25 in 10.0 mi NNE 6.9 mph - N/A   Clear
9:36 AM 64.4 °F 55.4 °F 73% 30.26 in 10.0 mi NE 6.9 mph - N/A   Clear
9:55 AM 64.4 °F 57.2 °F 77% 30.25 in 10.0 mi East 5.8 mph - N/A   Clear
10:16 AM 68.0 °F 57.2 °F 68% 30.26 in 10.0 mi ENE 6.9 mph - N/A   Clear
10:35 AM 68.0 °F 55.4 °F 64% 30.25 in 10.0 mi East 6.9 mph - N/A   Clear
10:55 AM 69.8 °F 55.4 °F 60% 30.25 in 10.0 mi East 10.4 mph - N/A   Clear
11:15 AM 69.8 °F 53.6 °F 56% 30.25 in 10.0 mi East 6.9 mph - N/A   Clear
11:36 AM 71.6 °F 53.6 °F 53% 30.25 in 10.0 mi East 8.1 mph - N/A   Clear
11:56 AM 71.6 °F 51.8 °F 50% 30.25 in 10.0 mi ENE 8.1 mph - N/A   Scattered Clouds
12:16 PM 71.6 °F 53.6 °F 53% 30.24 in 10.0 mi NE 6.9 mph - N/A   Scattered Clouds
12:36 PM 71.6 °F 50.0 °F 46% 30.24 in 10.0 mi East 6.9 mph - N/A   Scattered Clouds
12:55 PM 73.4 °F 51.8 °F 47% 30.24 in 10.0 mi East 10.4 mph - N/A   Mostly Cloudy
1:16 PM 73.4 °F 51.8 °F 47% 30.24 in 10.0 mi East 9.2 mph - N/A   Mostly Cloudy
1:35 PM 73.4 °F 51.8 °F 47% 30.23 in 10.0 mi NE 10.4 mph - N/A   Mostly Cloudy
1:56 PM 71.6 °F 51.8 °F 50% 30.23 in 10.0 mi ENE 10.4 mph - N/A   Mostly Cloudy
2:16 PM 73.4 °F 51.8 °F 47% 30.23 in 10.0 mi East 9.2 mph - N/A   Scattered Clouds
2:35 PM 75.2 °F 51.8 °F 44% 30.22 in 10.0 mi ENE 9.2 mph - N/A   Mostly Cloudy
2:55 PM 73.4 °F 50.0 °F 44% 30.22 in 10.0 mi NE 10.4 mph 17.3 mph N/A   Overcast
3:15 PM 73.4 °F 51.8 °F 47% 30.21 in 10.0 mi NE 6.9 mph - N/A   Mostly Cloudy
3:35 PM 73.4 °F 50.0 °F 44% 30.21 in 10.0 mi NE 10.4 mph - N/A   Mostly Cloudy
3:56 PM 73.4 °F 50.0 °F 44% 30.20 in 10.0 mi NE 9.2 mph - N/A   Mostly Cloudy
4:16 PM 73.4 °F 50.0 °F 44% 30.20 in 10.0 mi ENE 9.2 mph 16.1 mph N/A   Mostly Cloudy
4:36 PM 73.4 °F 48.2 °F 41% 30.19 in 10.0 mi ENE 9.2 mph 16.1 mph N/A   Mostly Cloudy
4:55 PM 75.2 °F 51.8 °F 44% 30.19 in 10.0 mi NE 9.2 mph - N/A   Scattered Clouds
5:15 PM 75.2 °F 51.8 °F 44% 30.19 in 10.0 mi ENE 8.1 mph - N/A   Mostly Cloudy
5:35 PM 73.4 °F 50.0 °F 44% 30.19 in 10.0 mi ENE 4.6 mph - N/A   Scattered Clouds
5:56 PM 73.4 °F 50.0 °F 44% 30.19 in 10.0 mi East 10.4 mph - N/A   Mostly Cloudy
6:16 PM 71.6 °F 50.0 °F 46% 30.19 in 10.0 mi NE 4.6 mph - N/A   Mostly Cloudy
6:35 PM 73.4 °F 51.8 °F 47% 30.19 in 10.0 mi East 8.1 mph - N/A   Scattered Clouds
6:56 PM 71.6 °F 50.0 °F 46% 30.19 in 10.0 mi ENE 8.1 mph - N/A   Mostly Cloudy
7:16 PM 69.8 °F 50.0 °F 49% 30.19 in 10.0 mi ENE 5.8 mph - N/A   Scattered Clouds
7:35 PM 69.8 °F 51.8 °F 53% 30.19 in 10.0 mi NE 5.8 mph - N/A   Clear
7:55 PM 69.8 °F 51.8 °F 53% 30.19 in 10.0 mi ENE 5.8 mph - N/A   Clear
8:15 PM 68.0 °F 51.8 °F 56% 30.19 in 10.0 mi ENE 5.8 mph - N/A   Clear
8:35 PM 66.2 °F 51.8 °F 60% 30.19 in 10.0 mi NE 4.6 mph - N/A   Clear
8:56 PM 64.4 °F 51.8 °F 64% 30.19 in 10.0 mi NE 4.6 mph - N/A   Clear
9:15 PM 64.4 °F 51.8 °F 64% 30.20 in 10.0 mi NE 4.6 mph - N/A   Clear
9:35 PM 62.6 °F 53.6 °F 72% 30.21 in 10.0 mi NNE 4.6 mph - N/A   Clear
9:56 PM 62.6 °F 53.6 °F 72% 30.22 in 10.0 mi NNE 5.8 mph - N/A   Clear
10:16 PM 62.6 °F 55.4 °F 77% 30.22 in 10.0 mi NE 6.9 mph - N/A   Clear
10:35 PM 60.8 °F 55.4 °F 82% 30.23 in 10.0 mi NE 5.8 mph - N/A   Clear
10:55 PM 60.8 °F 55.4 °F 82% 30.22 in 10.0 mi NE 5.8 mph - N/A   Clear
11:15 PM 60.8 °F 55.4 °F 82% 30.23 in 10.0 mi NE 5.8 mph - N/A   Clear
11:35 PM 60.8 °F 55.4 °F 82% 30.23 in 10.0 mi NE 6.9 mph - N/A   Clear
11:55 PM 60.8 °F 53.6 °F 77% 30.23 in 10.0 mi ENE 6.9 mph - N/A   Clear